User: anonymous   Login
Location: Finney State Fishing Lake and Wildlife Area
(38.1834°N, 100.3310°W)
Time: 09:17:14
(UTC+00:00)
Language:

BlueWalker 3 - Orbit

View from above orbital plane
View from above orbital plane
View from above satellite
View from above satellite

Ground track
Ground track

The orbit data is extracted from the following two-line orbital elements,

1 53807U 22111AL  23030.28221286  .00004467  00000-0  22396-3 0  9995
2 53807  53.2058 343.4464 0012978 359.5283   0.5699 15.19254649 21477
Epoch (UTC): 30 January 2023 06:46:23
Eccentricity: 0.0012978
inclination: 53.2058°
perigee height: 499 km
apogee height: 517 km
right ascension of ascending node: 343.4464°
argument of perigee: 359.5283°
revolutions per day: 15.19254649
mean anomaly at epoch: 0.5699°
orbit number at epoch: 2147

The dashed part of the orbit path shows where the satellite is in the earth's shadow,  

DLR